Date String (YYYY-MM-DD hh:mm:ss) UTC,Instrument flags,absolute air pressure of the measurement (hPa),sample flow rate (lpm),inlet stack bypass flow (lpm),air temperature of the measurement (°C),ambient temperature measured by the external sensor (°C),aerosol sample conditioner tube jacket temperature (°C),OPC LED temperature (°C),internal box temperature (°C),relative humidity of the measurement (%),span deviation,mass concentration of particles derived from Lorenz-Mie calculation of OPC scattering (μg/m³),mass concentration of particles derived from Lorenz-Mie calculation of OPC scattering (μg/m³),mass concentration of particles derived from Lorenz-Mie calculation of OPC scattering (μg/m³)
DateTimeUTC,F1_M11,P_M11,Q1_M11,Q2_M11,T1_M11,T2_M11,T3_M11,T4_M11,T5_M11,U1_M11,ZSPAN_M11,X0_M11,X2_M11,X1_M11
2024-03-02 14:00:00,SystemResetWarning,0818.7,4.99,000.00,021.0,020.2,000.0,029.4,022.7,08.8,0000.0,0005.90,0001.63,0000.95
2024-03-02 14:01:00,SystemResetWarning,0818.7,4.99,000.00,021.0,020.2,000.0,029.4,022.7,08.7,0000.0,0005.73,0001.64,0000.95
2024-03-02 14:02:00,SystemResetWarning,0818.7,5.00,000.00,021.0,020.2,000.0,029.4,022.7,08.7,0000.0,0005.92,0001.68,0000.95
2024-03-02 14:03:00,SystemResetWarning,0818.7,5.01,000.00,021.0,020.2,000.0,029.4,022.7,08.7,0000.0,0005.91,0001.66,0000.94
2024-03-02 14:04:00,SystemResetWarning,0818.7,5.01,000.00,021.0,020.2,000.0,029.4,022.7,08.9,0000.0,0005.76,0001.65,0000.93
2024-03-02 14:05:00,SystemResetWarning,0818.7,4.99,000.00,021.0,020.2,000.0,029.4,022.7,08.7,0000.0,0005.55,0001.62,0000.94
2024-03-02 14:06:00,SystemResetWarning,0818.7,4.99,000.00,021.0,020.2,000.0,029.3,022.7,08.6,0000.0,0004.48,0001.58,0000.94
2024-03-02 14:07:00,SystemResetWarning,0818.7,4.99,000.00,021.0,020.2,000.0,029.3,022.7,08.6,0000.0,0004.18,0001.60,0000.92
2024-03-02 14:08:00,SystemResetWarning,0818.7,5.01,000.00,021.0,020.2,000.0,029.3,022.7,08.6,0000.0,0003.88,0001.64,0000.92
2024-03-02 14:09:00,SystemResetWarning,0818.7,5.00,000.00,021.0,020.2,000.0,029.3,022.7,08.6,0000.0,0004.02,0001.62,0000.91
2024-03-02 14:10:00,SystemResetWarning,0818.8,5.00,000.00,021.0,020.2,000.0,029.3,022.7,08.8,0000.0,0003.94,0001.63,0000.92
2024-03-02 14:11:00,SystemResetWarning,0818.8,5.00,000.00,021.0,020.2,000.0,029.3,022.7,09.2,0000.0,0004.09,0001.65,0000.91
2024-03-02 14:12:00,SystemResetWarning,0818.8,5.00,000.00,021.0,020.2,000.0,029.3,022.7,09.8,0000.0,0004.31,0001.67,0000.91
2024-03-02 14:13:00,SystemResetWarning,0818.8,5.01,000.00,021.0,020.2,000.0,029.3,022.7,09.0,0000.0,0004.17,0001.63,0000.91
2024-03-02 14:14:00,SystemResetWarning,0818.9,5.00,000.00,020.9,020.2,000.0,029.3,022.6,08.9,0000.0,0004.27,0001.62,0000.90
2024-03-02 14:15:00,SystemResetWarning,0818.8,5.00,000.00,020.9,020.2,000.0,029.3,022.6,08.8,0000.0,0004.32,0001.59,0000.90
2024-03-02 14:16:00,SystemResetWarning,0818.9,5.00,000.00,020.9,020.2,000.0,029.3,022.6,08.7,0000.0,0004.41,0001.58,0000.89
2024-03-02 14:17:00,SystemResetWarning,0818.9,5.00,000.00,020.9,020.2,000.0,029.3,022.6,08.7,0000.0,0004.19,0001.60,0000.89
2024-03-02 14:18:00,SystemResetWarning,0818.9,5.00,000.00,020.9,020.2,000.0,029.3,022.6,08.6,0000.0,0003.97,0001.60,0000.90
2024-03-02 14:19:00,SystemResetWarning,0818.9,5.00,000.00,020.9,020.2,000.0,029.2,022.6,08.5,0000.0,0003.83,0001.58,0000.90
2024-03-02 14:20:00,SystemResetWarning,0818.9,4.99,000.00,020.9,020.2,000.0,029.3,022.6,08.5,0000.0,0003.60,0001.59,0000.89
2024-03-02 14:21:00,SystemResetWarning,0818.8,5.00,000.00,020.9,020.2,000.0,029.2,022.6,08.4,0000.0,0003.54,0001.58,0000.89
2024-03-02 14:22:00,SystemResetWarning,0818.9,5.00,000.00,020.9,020.2,000.0,029.2,022.6,08.4,0000.0,0003.71,0001.60,0000.90
2024-03-02 14:23:00,SystemResetWarning,0818.8,5.00,000.00,020.9,020.2,000.0,029.2,022.6,08.3,0000.0,0003.58,0001.61,0000.90
2024-03-02 14:24:00,SystemResetWarning,0818.8,5.01,000.00,020.9,020.2,000.0,029.2,022.7,08.2,0000.0,0003.62,0001.61,0000.89
2024-03-02 14:25:00,SystemResetWarning,0818.8,5.01,000.00,021.0,020.3,000.0,029.3,022.6,08.4,0000.0,0003.76,0001.61,0000.89
2024-03-02 14:26:00,SystemResetWarning,0818.9,4.99,000.00,021.0,020.3,000.0,029.2,022.7,09.5,0000.0,0004.54,0001.63,0000.89
2024-03-02 14:27:00,SystemResetWarning,0818.8,4.99,000.00,021.0,020.3,000.0,029.2,022.7,09.2,0000.0,0004.49,0001.61,0000.89
2024-03-02 14:28:00,SystemResetWarning,0818.9,5.01,000.00,021.0,020.3,000.0,029.2,022.7,08.7,0000.0,0004.35,0001.56,0000.88
2024-03-02 14:29:00,SystemResetWarning,0818.8,5.00,000.00,021.0,020.3,000.0,029.2,022.7,08.7,0000.0,0004.23,0001.52,0000.87
2024-03-02 14:30:00,SystemResetWarning,0818.8,5.01,000.00,021.0,020.3,000.0,029.2,022.7,09.1,0000.0,0004.17,0001.45,0000.87
2024-03-02 14:31:00,SystemResetWarning,0818.8,4.99,000.00,021.0,020.3,000.0,029.3,022.7,09.1,0000.0,0004.18,0001.42,0000.87
2024-03-02 14:32:00,SystemResetWarning,0818.9,4.99,000.00,021.0,020.3,000.0,029.3,022.7,09.7,0000.0,0004.13,0001.39,0000.87
2024-03-02 14:33:00,SystemResetWarning,0818.9,5.00,000.00,021.0,020.3,000.0,029.3,022.7,08.8,0000.0,0003.98,0001.35,0000.86
2024-03-02 14:34:00,SystemResetWarning,0818.9,5.00,000.00,021.0,020.4,000.0,029.3,022.7,08.6,0000.0,0004.60,0001.30,0000.85
2024-03-02 14:35:00,SystemResetWarning,0818.9,5.01,000.00,021.0,020.4,000.0,029.3,022.7,09.0,0000.0,0006.37,0001.33,0000.85
2024-03-02 14:36:00,SystemResetWarning,0818.8,5.00,000.00,021.0,020.4,000.0,029.3,022.7,09.3,0000.0,0006.60,0001.37,0000.86
2024-03-02 14:37:00,SystemResetWarning,0818.8,5.00,000.00,021.0,020.4,000.0,029.3,022.7,08.8,0000.0,0005.72,0001.35,0000.85
2024-03-02 14:38:00,SystemResetWarning,0818.8,4.99,000.00,021.0,020.4,000.0,029.3,022.7,08.1,0000.0,0005.69,0001.37,0000.85
2024-03-02 14:39:00,SystemResetWarning,0818.7,4.99,000.00,021.0,020.4,000.0,029.3,022.7,08.2,0000.0,0006.62,0001.38,0000.85
2024-03-02 14:40:00,SystemResetWarning,0818.7,5.00,000.00,021.0,020.4,000.0,029.3,022.7,08.2,0000.0,0006.70,0001.39,0000.86
2024-03-02 14:41:00,SystemResetWarning,0818.7,5.01,000.00,021.0,020.4,000.0,029.3,022.7,08.1,0000.0,0006.96,0001.47,0000.87
2024-03-02 14:42:00,SystemResetWarning,0818.7,5.01,000.00,021.0,020.4,000.0,029.3,022.8,08.5,0000.0,0006.97,0001.49,0000.88
2024-03-02 14:43:00,SystemResetWarning,0818.7,5.00,000.00,021.1,020.4,000.0,029.3,022.8,08.5,0000.0,0006.98,0001.51,0000.88
2024-03-02 14:44:00,SystemResetWarning,0818.6,5.00,000.00,021.1,020.4,000.0,029.3,022.8,07.9,0000.0,0007.08,0001.55,0000.88
2024-03-02 14:45:00,SystemResetWarning,0818.7,5.00,000.00,021.1,020.4,000.0,029.3,022.8,09.0,0000.0,0006.56,0001.56,0000.88
2024-03-02 14:46:00,SystemResetWarning,0818.7,5.00,000.00,021.1,020.4,000.0,029.3,022.8,10.0,0000.0,0006.06,0001.54,0000.88
2024-03-02 14:47:00,SystemResetWarning,0818.7,4.99,000.00,021.1,020.4,000.0,029.3,022.8,11.3,0000.0,0005.31,0001.47,0000.88
2024-03-02 14:48:00,SystemResetWarning,0818.7,5.00,000.00,021.1,020.4,000.0,029.3,022.8,11.2,0000.0,0005.09,0001.42,0000.87
2024-03-02 14:49:00,SystemResetWarning,0818.7,5.01,000.00,021.1,020.4,000.0,029.3,022.8,10.9,0000.0,0005.17,0001.41,0000.86
2024-03-02 14:50:00,SystemResetWarning,0818.7,5.01,000.00,021.1,020.4,000.0,029.3,022.8,09.8,0000.0,0005.93,0001.48,0000.86
2024-03-02 14:51:00,SystemResetWarning,0818.6,5.00,000.00,021.1,020.5,000.0,029.3,022.8,09.4,0000.0,0005.65,0001.55,0000.87
2024-03-02 14:52:00,SystemResetWarning,0818.6,5.00,000.00,021.1,020.5,000.0,029.3,022.8,09.4,0000.0,0005.51,0001.48,0000.86
2024-03-02 14:53:00,SystemResetWarning,0818.6,4.99,000.00,021.1,020.5,000.0,029.3,022.9,09.1,0000.0,0005.32,0001.43,0000.86
2024-03-02 14:54:00,SystemResetWarning,0818.6,5.00,000.00,021.2,020.5,000.0,029.3,022.9,08.8,0000.0,0005.37,0001.45,0000.87
2024-03-02 14:55:00,SystemResetWarning,0818.6,4.99,000.00,021.2,020.6,000.0,029.4,022.9,09.5,0000.0,0005.35,0001.43,0000.88
2024-03-02 14:56:00,SystemResetWarning,0818.7,5.00,000.00,021.2,020.6,000.0,029.4,022.9,10.7,0000.0,0005.44,0001.48,0000.88
2024-03-02 14:57:00,SystemResetWarning,0818.7,5.00,000.00,021.2,020.6,000.0,029.4,022.9,11.3,0000.0,0004.47,0001.53,0000.90
2024-03-02 14:58:00,SystemResetWarning,0818.7,5.00,000.00,021.2,020.6,000.0,029.4,022.9,11.1,0000.0,0004.18,0001.53,0000.89
2024-03-02 14:59:00,SystemResetWarning,0818.7,5.01,000.00,021.2,020.6,000.0,029.4,022.9,11.2,0000.0,0004.19,0001.55,0000.89
